Regional Weather Roundup
Issued by NWS

Home | Current Version | Previous Version | Text Only | Print | Product List | Glossary On
Versions: 1 2 3 4 5 6 7 8 9 10 11 12 13 14 15 16 17 18 19 20 21 22 23 24 25 26 27 28 29 30 31 32 33 34 35 36 37 38 39 40 41 42 43 44 45 46 47 48 49 50
000
ASUS45 KREV 240510
RWRNV
NEVADA REGIONAL WEATHER ROUNDUP
NATIONAL WEATHER SERVICE RENO NV
1000 PM PDT THU MAR 23 2017

NOTE: "FAIR" INDICATES FEW OR NO CLOUDS BELOW 12,000 FEET WITH NO
SIGNIFICANT WEATHER AND/OR OBSTRUCTIONS TO VISIBILITY.

NVZ001-003-004-240600-
WESTERN NEVADA

CITY           SKY/WX    TMP DP  RH WIND       PRES   REMARKS
RENO           MOCLDY    48  26  42 VRB3      30.13R
CARSON CITY    CLOUDY    46  25  42 W8        30.16R
MINDEN         FAIR      39  28  65 NE10      30.15S
FALLON         PTCLDY    41  19  41 S5        30.11R
LOVELOCK       CLEAR     41  24  51 S6        30.10R
HAWTHORNE      CLEAR     45  18  33 CALM      30.11S
$$

NVZ002-CAZ072-073-240600-
NORTHERN AND CENTRAL SIERRA

CITY           SKY/WX    TMP DP  RH WIND       PRES   REMARKS
S. LAKE TAHOE  MOCLDY    36  27  69 CALM      30.17S
TRUCKEE        MOCLDY    34  27  75 SE7       30.18S
SQUAW VLY 8000 NOT AVBL
SUSANVILLE     CLEAR     45  28  53 NW6       30.13R
MAMMOTH LAKES  FAIR      33  23  65 CALM      30.19S
BRIDGEPORT       N/A     34  18  52 VRB5      30.15R
$$

NVZ030-031-036-240600-
NORTHERN NEVADA

CITY           SKY/WX    TMP DP  RH WIND       PRES   REMARKS
ELKO           CLEAR     35  28  75 SW3       30.12R
WINNEMUCCA     PTCLDY    38  27  64 S7        30.09R
WENDOVER       CLEAR     49  22  34 NW14      30.09R
$$

NVZ035-037-240600-
CENTRAL NEVADA

CITY           SKY/WX    TMP DP  RH WIND       PRES   REMARKS
ELY            CLEAR     32  22  66 W8        30.16R
EUREKA           N/A    N/A N/A N/A SW6         N/A
$$

NVZ013-014-240600-
SOUTH CENTRAL NEVADA

CITY           SKY/WX    TMP DP  RH WIND       PRES   REMARKS
TONOPAH        CLEAR     39  19  44 CALM      30.15R
$$

NVZ017-020-022-240600-
SOUTHERN NEVADA

CITY           SKY/WX    TMP DP  RH WIND       PRES   REMARKS
LAS VEGAS      PTCLDY    61  34  36 N8        30.04R
N. LAS VEGAS   CLEAR     60  35  39 E7        30.05R
NELLIS AFB     CLEAR     60  39  45 NE15      30.05R
HENDERSON      CLEAR     59  35  40 NE6       30.07R
MERCURY        CLEAR     54  18  24 E7        30.09R
$$



USA.gov is the U.S. government's official web portal to all federal, state and local government web resources and services.